User: anonymous   Login
Location: Unspecified
(0.0000°N, 0.0000°E)
Time: 20:31:38
(UTC+02:00)
Language:

Transit 2A - Orbit

View from above orbital plane
View from above orbital plane
View from above satellite
View from above satellite

Ground track
Ground track

The orbit data is extracted from the following two-line orbital elements,

1 00045U 60007A   14295.90093576  .00000300  00000-0  10288-3 0  2697
2 00045 066.6969 060.2462 0255399 016.5163 118.1561 14.33088735826795
Epoch (UTC): 22 October 2014 21:37:20
Eccentricity: 0.0255399
inclination: 66.6969°
perigee height: 598 km
apogee height: 964 km
right ascension of ascending node: 60.2462°
argument of perigee: 16.5163°
revolutions per day: 14.33088735
mean anomaly at epoch: 118.1561°
orbit number at epoch: 82679

The dashed part of the orbit path shows where the satellite is in the earth's shadow,  

DLR